Home > Weather > Lille > Past weeks

Flag for France Past Weather in Lille, Nord-Pas-de-Calais, France — Yesterday and Last 2 Weeks

Now
75 °F

Passing clouds.


Feels Like: 77 °F
Forecast: 62 / 76 °F
Wind: 12 mph from East

Location: Lille Airport

Current Time: Aug 27, 2016 at 12:19:50 PM

Latest Report: Aug 27, 2016 at 11:30 AM


Visibility: N/A

Pressure: 30.01 "Hg

Humidity: 69%

Dew Point: 64 °F

Location of LilleLocation

Past Weather in Lille — Graph

°F

Lille Temperature Yesterday

Maximum temperature yesterday: 82 °F (at 3:00 PM)
Minimum temperature yesterday: 66 °F (at 6:30 AM)
Average temperature yesterday: 75 °F

High & Low Weather Summary for the Past Weeks

 TemperatureHumidityPressure
High95 °F (Aug 25, 4:30 PM)100% (Aug 13, 6:30 AM)30.30 "Hg (Aug 13, 6:30 AM)
Low55 °F (Aug 14, 5:00 AM)28% (Aug 24, 5:00 PM)29.74 "Hg (Aug 19, 5:00 PM)
Average69 °F70%30.05 "Hg
* Reported Aug 12 11:00 AM — Aug 27 11:00 AM, Lille, Weather by CustomWeather, © 2016

Note: Actual official high and low records may vary slightly from our data, if they occured in-between our weather recording intervals... More about our weather records

Advertising

Lille Weather History for the Previous 24 Hours

Scroll right to see more
 ConditionsComfort  
Time TempWeatherWind HumidityBarometerVisibility
11:00 AM
Sat, Aug 27
73 °FSunny.12 mph74%30.01 "Hg10 mi
10:30 AM72 °FSunny.10 mph78%30.04 "Hg10 mi
10:00 AM70 °FSunny.10 mph78%30.04 "Hg10 mi
9:30 AM70 °FSunny.9 mph78%30.04 "Hg10 mi
9:00 AM68 °FSunny.9 mph83%30.04 "Hg10 mi
8:30 AM66 °FSunny.8 mph83%30.04 "Hg10 mi
8:00 AM66 °FSunny.8 mph83%30.04 "Hg10 mi
7:30 AM64 °FClear.9 mph88%30.04 "Hg10 mi
7:00 AM66 °FClear.8 mph83%30.04 "Hg10 mi
6:30 AM66 °FClear.9 mph83%30.04 "Hg10 mi
6:00 AM66 °FClear.8 mph88%30.04 "Hg10 mi
5:30 AM66 °FClear.10 mph83%30.04 "Hg10 mi
5:00 AM66 °FClear.9 mph83%30.04 "Hg10 mi
4:30 AM66 °FClear.8 mph83%30.07 "Hg10 mi
4:00 AM68 °FClear.7 mph78%30.07 "Hg10 mi
3:30 AM66 °FClear.7 mph83%30.07 "Hg10 mi
3:00 AM68 °FClear.6 mph78%30.07 "Hg10 mi
2:30 AM68 °FClear.7 mph78%30.07 "Hg10 mi
2:00 AM68 °FClear.7 mph78%30.07 "Hg10 mi
1:30 AM70 °FPassing clouds.8 mph73%30.07 "HgN/A
1:00 AM70 °FPassing clouds.7 mph73%30.07 "HgN/A
12:30 AM70 °FOvercast.6 mph73%30.09 "HgN/A
12:00 AM70 °FPassing clouds.7 mph73%30.09 "HgN/A
11:30 PM
Fri, Aug 26
70 °FClear.7 mph78%30.09 "Hg10 mi
11:00 PM72 °FPassing clouds.7 mph73%30.09 "HgN/A
10:30 PM72 °FClear.9 mph73%30.09 "Hg10 mi
10:00 PM73 °FClear.7 mph74%30.07 "Hg10 mi
9:30 PM73 °FSunny.8 mph74%30.07 "Hg10 mi
9:00 PM75 °FSunny.9 mph69%30.07 "Hg10 mi
8:30 PM77 °FSunny.10 mph65%30.04 "Hg10 mi
8:00 PM79 °FSunny.9 mph61%30.04 "Hg10 mi
7:30 PM79 °FSunny.10 mph61%30.04 "Hg10 mi
7:00 PM79 °FSunny.12 mph61%30.04 "Hg10 mi
6:30 PM81 °FPassing clouds.9 mph62%30.04 "HgN/A
6:00 PM81 °FPassing clouds.9 mph62%30.04 "HgN/A
5:30 PM81 °FPassing clouds.10 mph62%30.04 "HgN/A
5:00 PM81 °FScattered clouds.10 mph62%30.04 "HgN/A
4:30 PM81 °FScattered clouds.10 mph62%30.04 "Hg5 mi
4:00 PM82 °FScattered clouds.9 mph62%30.04 "Hg4 mi
3:30 PM82 °FClear.9 mph62%30.04 "Hg4 mi
3:00 PM82 °FPassing clouds.8 mph62%30.04 "Hg5 mi
2:30 PM81 °FScattered clouds.7 mph62%30.04 "Hg4 mi
2:00 PM81 °FPassing clouds.7 mph66%30.04 "Hg4 mi
1:30 PM81 °FPassing clouds.8 mph66%30.04 "Hg4 mi
1:00 PM81 °FClear.8 mph66%30.04 "Hg4 mi
12:30 PM81 °FHaze.7 mph66%30.04 "Hg3 mi
12:00 PM81 °FClear.8 mph62%30.04 "Hg5 mi
Weather by CustomWeather, © 2016

See weather overviewHow to use our weather pages